AirNav   Air Wisconsin pilot careers
 
 987 users online  

T78 Liberty Municipal Airport
Liberty, Texas, USA

GOING TO LIBERTY?


FAA INFORMATION EFFECTIVE 11 OCTOBER 2018

Location

FAA Identifier: T78
Lat/Long: 30-04-40.1000N / 094-41-54.8000W
30-04.668333N / 094-41.913333W
30.0778056 / -94.6985556
(estimated)
Elevation: 69.5 ft. / 21.2 m (surveyed)
Variation: 05E (1995)
From city: 6 miles NE of LIBERTY, TX
Time zone: UTC -5 (UTC -6 during Standard Time)
Zip code: 77575

Airport Operations

Airport use: Open to the public
Activation date: 08/1959
Control tower: no
ARTCC: HOUSTON CENTER
FSS: MONTGOMERY COUNTY FLIGHT SERVICE STATION
FOR FP FILING CALL CXO FSS 1-800-992-7433.
NOTAMs facility: CXO (NOTAM-D service available)
Attendance: 0800-1800
Wind indicator: lighted
Segmented circle: yes
Lights: ACTVT MIRL RY 16/34 - CTAF.
Beacon: white-green (lighted land airport)
Operates sunset to sunrise.

Airport Communications

CTAF: 122.9
HOUSTON APPROACH: 119.7
HOUSTON DEPARTURE: 119.7
BORRN DP: 119.7
DREMR DP: 119.7
INDIE DP: 119.7
KARRR DP: 119.7
LURIC DP: 119.7
MMALT DP: 119.7
STRYA DP: 119.7
STYCK DP: 119.7
WATFO DP: 119.7
WYLSN DP: 119.7

Nearby radio navigation aids

VOR radial/distance  VOR name  Freq  Var
DASr197/7.3DAISETTA VORTAC116.9005E
MHFr358/32.0TRINITY VOR/DME113.6007E
IAHr073/34.4HUMBLE VORTAC116.6005E
BPTr276/36.3BEAUMONT VOR/DME114.5007E
HUBr045/39.3HOBBY VOR/DME117.1005E

 
NDB name  Hdg/Dist  Freq  Var  ID
GOODHUE264/25.336807EGDE --. -.. .
NIXIN074/27.332605EBVP -... ...- .--.
HARDIN COUNTY232/27.552404EHRD .... .-. -..

Airport Services

Fuel available: 100LL JET-A
24 HR SELF-SERVICE FUEL.
Parking: tiedowns
Airframe service: MAJOR
Powerplant service: MAJOR
Bottled oxygen: NONE
Bulk oxygen: NONE

Runway Information

Runway 16/34

Dimensions: 3801 x 75 ft. / 1159 x 23 m
Surface: asphalt, in fair condition
Weight bearing capacity: 
Single wheel: 10.0
Runway edge lights: medium intensity
RUNWAY 16  RUNWAY 34
Latitude: 30-04.971517N30-04.363658N
Longitude: 094-42.001210W094-41.824053W
Elevation: 68.9 ft.68.6 ft.
Traffic pattern: leftleft
Runway heading: 161 magnetic, 166 true341 magnetic, 346 true
Markings: nonprecision, in fair conditionnonprecision, in fair condition
Visual slope indicator: 2-light PAPI on left (3.00 degrees glide path)
Touchdown point: yes, no lightsyes, no lights
Obstructions: 51 ft. trees, 200 ft. from runway, 215 ft. right of centerline
+57 FT TREES 215 FT RT OF RY CENTERLINE FM THLD TO 200 FT.
67 ft. trees, 1248 ft. from runway, 15:1 slope to clear

Airport Ownership and Management from official FAA records

Ownership: Publicly-owned
Owner: CITY OF LIBERTY
1829 SAM HOUSTON
LIBERTY, TX 77575
Phone 936-587-4150
Manager: PHIL ROBERTSON
1829 SAM HOUSTON
LIBERTY, TX 77575
Phone (281) 660-2337

Airport Operational Statistics

Aircraft based on the field: 26
Single engine airplanes: 23
Multi engine airplanes: 1
Ultralights: 2
    
Aircraft operations: avg 120/week *
58% transient general aviation
41% local general aviation
<1% military
* for 12-month period ending 14 November 2016

Additional Remarks

FOR CD CTC HOUSTON APCH AT 281-443-5844 TO CNL IFR CALL 281-443-5888.

Instrument Procedures

NOTE: All procedures below are presented as PDF files. If you need a reader for these files, you should download the free Adobe Reader.

NOT FOR NAVIGATION. Please procure official charts for flight.
FAA instrument procedures published for use from 11 October 2018 at 0901Z to 8 November 2018 at 0900Z.

 
STARs - Standard Terminal Arrivals
HUDZY THREE   2 pages: [1] [2] (326KB)
OHIIO FOUR   download (296KB)
RIICE EIGHT   2 pages: [1] [2] (548KB)
WHAEL THREE   download (159KB)
 
IAPs - Instrument Approach Procedures
RNAV (GPS) RWY 16   download (140KB)
VOR-A   download (125KB)
 
Departure Procedures
BLTWY FIVE (RNAV)   download (119KB)
BORRN THREE (RNAV)   2 pages: [1] [2] (248KB)
HOODO FIVE (RNAV)   2 pages: [1] [2] (203KB)
INDIE SIX (RNAV)   download (150KB)
KARRR FOUR (RNAV)   2 pages: [1] [2] (195KB)
LURIC SIX (RNAV)   download (167KB)
MMALT FOUR (RNAV)   download (184KB)
STRYA SIX (RNAV)   download (155KB)
STYCK SIX (RNAV)   download (144KB)
WATFO FOUR (RNAV)   download (140KB)
WYLSN SIX (RNAV)   download (133KB)
NOTE: Special Take-Off Minimums/Departure Procedures apply   download

Other nearby airports with instrument procedures:

T00 - Chambers County Airport (19 nm S)
54T - RWJ Airpark (20 nm S)
KHPY - Baytown Airport (22 nm SW)
6R3 - Cleveland Municipal Airport (23 nm NW)
KBMT - Beaumont Municipal Airport (25 nm E)
 
Loc | Ops | Rwys | IFR | FBO | Links
Com | Nav | Svcs | Stats | Notes


 
Area around T78 (Liberty Municipal Airport)
 
Road maps at: MapQuest Bing Google
 
Aerial photo
WARNING: Photo may not be current or correct
Aerial photo of T78 (Liberty Municipal Airport)
Photo by David Lawrence flying a 78 Bellanca/17-30A
Photo taken 08-Nov-2014
looking north.

Do you have a better or more recent aerial photo of Liberty Municipal Airport that you would like to share? If so, please send us your photo.

 
Sectional chart

 
Airport diagram
CAUTION: Diagram may not be current
Diagram of T78 (Liberty Municipal Airport)
 
Airport distance calculator
Flying to Liberty Municipal Airport? Find the distance to fly.

From to T78

Sunrise and sunset
Times for 17-Oct-2018
 Local
(UTC-5)
 Zulu
(UTC)
Morning civil twilight06:5911:59
Sunrise07:2312:23
Sunset18:4523:45
Evening civil twilight19:0900:09

Current date and time
Zulu (UTC)  17-Oct-2018 12:34:37
Local (UTC-5)  17-Oct-2018 07:34:37
 
METAR
K6R3 
23nm NW 
171215Z AUTO 01004KT 2 1/2SM BR OVC004 13/13 A3019 RMK AO2 T01310125
KBMT 
25nm E 
171215Z AUTO 01008KT 10SM OVC004 15/14 A3016 RMK AO2 T01500136
KIAH 
35nm W 
171153Z 01006KT 2 1/2SM BR OVC004 14/14 A3017 RMK AO2 DZE26 SLP216 P0000 60000 T01390139 10139 20133 53011
KBPT 
35nm E 
171153Z 02012KT 9SM OVC004 16/14 A3013 RMK AO2 SLP203 70005 T01560139 10156 20156 53007
KEFD 
38nm SW 
171150Z 34009KT 8SM OVC007 14/13 A3017
KHOU 
40nm SW 
171153Z 36010KT 4SM BR OVC006 14/13 A3016 RMK AO2 SLP217 T01440128 10144 20139 53011
KCXO 
41nm NW 
171153Z 36004KT 3SM BR OVC005 13/13 A3020 RMK AO2 SLP224 T01280128 10128 20122 53012
KDWH 
44nm W 
171153Z 01005KT 5SM BR OVC005 13/13 A3018 RMK AO2 SLP219 70001 T01330128 10133 20128 53012
KLVJ 
44nm SW 
171153Z AUTO 01007KT 10SM OVC006 14/14 A3017 RMK AO2 SLP214 T01440144 10150 20144 53008
TAF
KIAH 
35nm W 
171120Z 1712/1818 36008KT 3SM BR OVC004 TEMPO 1712/1716 1SM -DZ BR OVC003 FM171600 01008KT 5SM BR OVC006 FM171800 36012KT P6SM OVC008 FM180600 02009KT P6SM OVC006 FM181500 03010KT P6SM OVC008
KBPT 
35nm E 
171122Z 1712/1812 03012KT P6SM VCSH SCT003 OVC007 TEMPO 1712/1714 4SM BR OVC003
KEFD 
38nm SW 
171200Z 1712/1818 01012KT 8000 -SHRA OVC008 QNH3012INS TX18/1719Z TN13/1712Z
KHOU 
40nm SW 
171159Z 1712/1812 01011KT 4SM BR OVC006 TEMPO 1712/1716 2SM -DZ BR OVC003 FM171800 01012KT P6SM OVC008 FM180600 01012KT P6SM OVC006
KCXO 
41nm NW 
171120Z 1712/1812 36006KT 3SM BR OVC005 TEMPO 1712/1716 1SM -DZ BR OVC003 FM171600 36008KT 6SM BR OVC006 FM171800 36009KT P6SM OVC008 FM180600 01007KT 6SM BR OVC006
NOTAMs
Click for the latest NOTAMs
NOTAMs are issued by the DoD/FAA and will open in a separate window not controlled by AirNav.

 

 
 

FBO, Fuel Providers, and Aircraft Ground Support

  
 Business Name 
 
 Contact 
 
 Services / Description 
 
Fuel Prices
 
Comments
  
Liberty Municipal Airport 281-660-2337
936-336-3684
[web site]
Aviation fuel, Aircraft parking (ramp or tiedown), Restrooms
More info and photos of Liberty Municipal Airport
independent
100LL Jet A
SS $3.80 $2.80 
 Updated 28-Aug-2018
 
   4 read write
SS=Self service
Update Fuel Prices
 

Would you like to see your business listed on this page?

 If your business provides an interesting product or service to pilots, flight crews, aircraft, or users of the Liberty Municipal Airport, you should consider listing it here.  To start the listing process, click on the button below
 
Add a business
 

Other Pages about Liberty Municipal Airport

www.cityofliberty.org/...
 
Update a link
 
Copyright © AirNav, LLC. All rights reserved. Privacy Policy  Contact